Вернуться в каталог

ITALSAT 2

АктивенСвязьGEO
NORAD 24208·PAYLOAD·🇮🇹 Italy

Запущен Aug 8, 1996 с Guiana Space Centre

Loading…

TLE

СвежийSource: Space-Track

Эпоха: Sep 13, 2026, 19:24 UTC

1 24208U 96044A   26256.80846154 -.00000320  00000-0  00000-0 0  9992
2 24208  13.8419   6.1439 0025718 159.7952 206.0768  1.00790884110499

Отслеживайте ITALSAT 2 в реальном времени с AllMySat

Download on the App Store